Regional Weather Roundup
Issued by NWS Cleveland, OH

Home | Current Version | Previous Version | Graphics & Text | Print | Product List | Glossary On
Versions: 1 2 3 4 5 6 7 8 9 10 11 12 13 14 15 16 17 18 19 20 21 22 23 24 25 26 27 28 29 30 31 32 33 34 35 36 37 38 39 40 41 42 43 44 45 46 47 48 49 50
000
ASUS41 KCLE 131510
RWRCLE
OHIO REGIONAL WEATHER ROUNDUP
NATIONAL WEATHER SERVICE CLEVELAND, OH
1000 AM EST SAT FEB 13 2016

NOTE: "FAIR" INDICATES FEW OR NO CLOUDS BELOW 12,000 FEET WITH NO
SIGNIFICANT WEATHER AND/OR OBSTRUCTIONS TO VISIBILITY.

OHZ001>008-015>018-024>027-034-035-043-044-131600-
   NORTHWEST OHIO

CITY           SKY/WX    TMP DP  RH WIND       PRES   REMARKS
DEFIANCE       CLOUDY    11  -1  58 W3        30.49R
FINDLAY        SUNNY     10  -2  58 W15       30.46R WCI  -7
TOLEDO EXPRESS CLOUDY     9  -2  61 W14       30.46R WCI  -7
TOLEDO EXEC    MOSUNNY   10  -2  58 W12       30.48R WCI  -5
LIMA           PTSUNNY    9  -3  58 W9        30.47R WCI  -4
$$

OHZ009>014-019>023-028>033-038-089-131600-
   NORTHEAST OHIO

CITY           SKY/WX    TMP DP  RH WIND       PRES   REMARKS
CLE-HOPKINS    PTSUNNY    9  -3  58 NW17G26   30.44R WCI  -9
CLE-LAKEFRONT  CLOUDY    11  -1  58 NW21G30   30.41R WCI  -8
CUY CO. ARPT   CLOUDY    10  -2  56 NW16G28   30.38R WCI  -7
LORAIN-ELYRIA  LGT SNOW   9   0  67 NW10      30.42R WCI  -5
ASHTABULA      LGT SNOW   7   0  73 NW9G21    30.34R WCI  -7
AKRON-CANTON   MOSUNNY    7  -6  55 NW18G28   30.35R WCI -12
WOOSTER        SUNNY      6  -4  63 NW13      30.39R WCI -10
MANSFIELD      SUNNY      5  -6  60 NW12      30.39R WCI -11
YOUNGSTOWN     LGT SNOW   8  -5  55 NW15G32   30.31R BLWGSNOWWCI  -9
$$

OHZ042-051>053-060>062-070>072-077>081-131600-
  SOUTHWEST OHIO

CITY           SKY/WX    TMP DP  RH WIND       PRES   REMARKS
CINC-COVINGTON MOSUNNY   12   3  67 NW7       30.53R WCI   1
CINC-LUNKEN    MOSUNNY   15  -2  46 NW9       30.58R WCI   3
HAMILTON       SUNNY     13  -4  46 VRB7      30.56R WCI   3
DAYTON         PTSUNNY   10  -5  50 NW8       30.50R WCI  -2
WRIGHT-PAT AFB SUNNY     10  -8  44 VRB7      30.51R WCI  -2
DAYTON GENERAL MOSUNNY    9  -7  48 NW7       30.51R WCI  -2
WILMINGTON     SUNNY      9  -5  53 NW9       30.49R WCI  -4
$$

OHZ036-037-039>041-045>050-054>059-063>069-073>076-082>088-131600-
  CENTRAL AND SOUTHEAST OHIO

CITY           SKY/WX    TMP DP  RH WIND       PRES   REMARKS
COLUMBUS       MOSUNNY    8  -8  48 NW10      30.48R WCI  -6
OSU AIRPORT    SUNNY      8  -6  52 W9        30.47R WCI  -5
BOLTON FIELD   SUNNY      9  -6  52 NW12      30.49R WCI  -6
RICKENBACK AFB MOSUNNY    8  -7  49 NW12      30.50R WCI  -7
NEWARK         SUNNY      9  -6  50 NW6       30.46R WCI  -1
MARION         MOSUNNY    9  -4  55 NW12      30.45R WCI  -6
LANCASTER      SUNNY      9  -7  48 NW12      30.49R WCI  -6
ZANESVILLE     SUNNY      9  -7  48 NW14      30.45R WCI  -7
NEW PHILLY     MOSUNNY    8  -3  61 NW14G20   30.43R WCI  -8
$$



USA.gov is the U.S. government's official web portal to all federal, state and local government web resources and services.